Flag for Moldova Weather past 2 weeks in Tiraspol, Moldova

43 °F

Passing clouds.

Feels Like: 41 °F
Forecast: 42 / 52 °F
Wind: 3 mph from East

Location: Chisinau International Airport

Current Time: Oct 9, 2015 at 6:22:11 AM

Latest Report: Oct 9, 2015 at 6:00 AM

Visibility: N/A

Pressure: 30.15 "Hg

Humidity: 57%

Dew point: 28 °F

Location of TiraspolLocation

Historic Weather in Tiraspol — Graph


Tiraspol temperature yesterday

Maximum temperature yesterday: 54 °F (at 2:30 PM)
Minimum temperature yesterday: 32 °F (at 8:00 AM)
Average temperature yesterday: 44 °F

Past Weeks' High & Low Weather Summary

High81 °F (Sep 24, 3:30 PM)94% (Sep 24, 10:30 PM)30.42 "Hg (Sep 24, 10:30 PM)
Low32 °F (Oct 8, 8:00 AM)18% (Oct 3, 4:30 PM)29.80 "Hg (Oct 6, 2:00 PM)
Average60 °F61%30.11 "Hg
* Reported Sep 24 5:00 AM — Oct 9 5:00 AM, Tiraspol, Weather by CustomWeather, © 2015

Note: Actual official high and low records may vary slightly from our data, if they occured in-between our weather recording intervals... More about our weather records


Tiraspol weather history for previous 24 hours

Time TempWeatherWind HumidityBarometerVisibility
5:00 AM
Fri, Oct 9
43 °FPassing clouds.5 mph57%30.15 "HgN/A
4:30 AM43 °FPassing clouds.3 mph57%30.15 "HgN/A
4:00 AM43 °FPassing clouds.3 mph57%30.15 "HgN/A
3:30 AM43 °FPassing clouds.5 mph53%30.15 "HgN/A
3:00 AM43 °FPassing clouds.No wind53%30.18 "HgN/A
2:30 AM43 °FPassing clouds.3 mph53%30.18 "HgN/A
2:00 AM43 °FPassing clouds.6 mph57%30.18 "HgN/A
1:30 AM43 °FPassing clouds.5 mph53%30.18 "HgN/A
1:00 AM41 °FPassing clouds.7 mph57%30.18 "HgN/A
12:30 AM45 °FPassing clouds.7 mph49%30.18 "HgN/A
12:00 AM45 °FPassing clouds.6 mph49%30.18 "HgN/A
11:30 PM
Thu, Oct 8
45 °FPassing clouds.6 mph49%30.18 "HgN/A
11:00 PM45 °FPassing clouds.8 mph49%30.18 "HgN/A
10:30 PM45 °FPassing clouds.7 mph46%30.21 "HgN/A
10:00 PM45 °FPassing clouds.6 mph46%30.18 "HgN/A
9:00 PM45 °FClear.6 mph46%30.18 "Hg10 mi
8:30 PM43 °FClear.6 mph49%30.18 "Hg10 mi
8:00 PM45 °FClear.5 mph46%30.21 "Hg5 mi
7:30 PM46 °FClear.6 mph40%30.21 "Hg4 mi
7:00 PM46 °FClear.5 mph43%30.21 "Hg3 mi
6:30 PM50 °FClear.5 mph32%30.18 "Hg4 mi
6:00 PM52 °FSunny.7 mph32%30.18 "Hg10 mi
5:30 PM52 °FSunny.7 mph30%30.21 "Hg10 mi
5:00 PM54 °FPassing clouds.7 mph24%30.21 "HgN/A
4:30 PM54 °FPassing clouds.8 mph22%30.21 "HgN/A
4:00 PM54 °FPassing clouds.9 mph24%30.21 "HgN/A
3:30 PM54 °FPassing clouds.8 mph24%30.21 "HgN/A
3:00 PM54 °FPassing clouds.7 mph22%30.21 "HgN/A
2:30 PM54 °FPassing clouds.8 mph22%30.24 "HgN/A
2:00 PM52 °FPassing clouds.9 mph24%30.24 "HgN/A
1:30 PM52 °FPassing clouds.7 mph24%30.24 "HgN/A
1:00 PM52 °FPassing clouds.8 mph24%30.24 "HgN/A
12:30 PM50 °FPassing clouds.9 mph28%30.27 "HgN/A
12:00 PM50 °FPassing clouds.7 mph24%30.27 "HgN/A
11:30 AM48 °FPassing clouds.8 mph32%30.27 "HgN/A
11:00 AM46 °FPassing clouds.9 mph34%30.27 "HgN/A
10:30 AM45 °FPassing clouds.8 mph37%30.27 "HgN/A
10:00 AM41 °FPassing clouds.6 mph42%30.27 "HgN/A
9:30 AM39 °FSunny.7 mph48%30.27 "Hg10 mi
9:00 AM37 °FSunny.6 mph52%30.27 "Hg10 mi
8:30 AM34 °FSunny.6 mph60%30.27 "Hg10 mi
8:00 AM32 °FClear.6 mph69%30.24 "Hg10 mi
7:30 AM34 °FClear.6 mph56%30.24 "Hg10 mi
7:00 AM34 °FClear.6 mph56%30.24 "Hg10 mi
6:30 AM34 °FClear.5 mph56%30.24 "Hg10 mi
6:00 AM36 °FClear.5 mph52%30.24 "Hg10 mi
Weather by CustomWeather, © 2015

See weather overviewHow to use our weather pages